IRIDIUM 69 [-] (25319 NORAD) Tracking and Keplerian Element Data

This shows tracking and keplerian element data for the satellite.

Feedback or suggestion? Click here.




ElementValue
Catalog25319
NameIRIDIUM 69 [-]
Epoch Orbit5967
Epoch Day198.78688032
Epoch Year2018
RAAN79.3378
Inclination86.3982
Eccentricity0.0004022
Argument of Perigee69.3572
Mean Anonmoly290.8058
Mean Motion14.38743767
Decay Rate8.1E-07
L11 25319U 98026A 18198.78688032 .00000081 00000-0 19936-4 0 9995
L22 25319 86.3982 79.3378 0004022 69.3572 290.8058 14.38743767 59674

Live tracking and technical data element details for IRIDIUM 69 [-] (NORAD 25319). IRIDIUM 69 [-] can be tracked NOW for your location showing map with azimuth and elevation plus other details from your city location.

Track the satellite on the map from your city or location and see movement details for azimuth, elevation, latitude, longitude, range, height, and movement on the map or in text.







IsCatalogInMostPopularTable: catalog: 25319, numindb: 31
Update: records affected: 1



GetName: 25319 IRIDIUM 69 [-]

Hit Count: updated at: Fri, 20 Jul 2018 06:54:41 GMT